Location: Brasstown Bald
(34.8693°N, 83.8103°W)
Time: 23:11:01
(UTC-04:00)

Amateur Radio Satellites - All Passes

Search period start: 01 April 2015 22:41
Search period end: 02 April 2015 22:41
Location: Brasstown Bald, 34.8693°N, 83.8103°W

Satellite Date Start Highest point End Downlink Frequencies (MHz)
Time Altitude Azimuth
CANX-2 01 Apr 22:41:50 22:44:36 16° 268° (W) 22:47:13 2200.000
UWE-3 01 Apr 22:53:17 22:57:25 83° 257° (WSW) 23:01:36 435.000/436.395/437.385
ZACube-1 01 Apr 22:53:26 22:57:34 77° 78° (ENE) 23:01:44 437.345
CUBEBUG 1 01 Apr 22:55:58 22:56:34 10° 67° (ENE) 22:57:26 437.445
CUTE 1.7 + AOD 2 01 Apr 22:56:07 22:58:05 12° 270° (W) 22:59:48 437.475
VELOX 1 01 Apr 23:03:30 23:07:21 30° 72° (ENE) 23:11:16 145.980
AAUSAT CUBESAT 2 01 Apr 23:05:19 23:08:02 16° 268° (W) 23:10:35 437.432
CUBEBUG 2 01 Apr 23:06:28 23:10:26 44° 261° (W) 23:14:26 437.445
AISAT 01 Apr 23:09:37 23:13:41 37° 73° (ENE) 23:17:47 437.250
HUMSAT D 01 Apr 23:14:36 23:18:38 65° 77° (ENE) 23:22:44 437.325/437.525
50 SAT 01 Apr 23:17:49 23:21:30 42° 74° (ENE) 23:25:15 437.505
CINEMA 3 01 Apr 23:21:16 23:23:55 16° 267° (W) 23:26:23 145.822/145.860
UNISAT 6 01 Apr 23:22:37 23:26:12 22° 94° (E) 23:29:56 437.425
UKube-1 01 Apr 23:28:50 23:33:05 54° 260° (W) 23:37:20 .
TIGRISAT 01 Apr 23:30:50 23:34:42 27° 96° (E) 23:38:42 435.000
QB50P2 01 Apr 23:33:12 23:35:01 13° 91° (E) 23:37:05 145.880/145.840
ISS 01 Apr 23:38:24 23:39:54 12° 334° (NNW) 23:41:20 145.825
DX 1 01 Apr 23:44:30 23:48:28 33° 262° (W) 23:52:24 434.975-435.025
ESTCUBE 1 01 Apr 23:51:28 23:55:54 54° 74° (ENE) 00:00:21 437.505/2401.250
PCSat 01 Apr 23:57:45 00:02:55 44° 58° (ENE) 00:08:04 145.827
DELFI C3 01 Apr 23:58:32 23:59:42 11° 270° (W) 00:00:37 145.870
POPSAT HIP 1 01 Apr 23:59:39 00:03:12 26° 96° (E) 00:06:50 437.405
TISAT 1 02 Apr 00:01:15 00:02:27 11° 67° (ENE) 00:03:54 437.305
ANTELSAT 02 Apr 00:02:36 00:07:12 65° 101° (E) 00:11:53 437.575/2403.000
NANOSAT C BR1 02 Apr 00:08:25 00:12:15 33° 97° (E) 00:16:07 145.865
POLYITAN 1 02 Apr 00:15:59 00:20:02 43° 99° (E) 00:24:07 437.675
FUNcube-1 02 Apr 00:19:21 00:19:57 10° 270° (W) 00:20:18 145.935
SPROUT 02 Apr 00:23:12 00:26:41 25° 71° (ENE) 00:30:15 437.525
CUBEBUG 1 02 Apr 00:28:07 00:32:29 62° 259° (W) 00:36:51 437.445
VELOX 1 02 Apr 00:40:40 00:43:59 20° 266° (W) 00:47:11 145.980
RS-15 02 Apr 00:44:40 00:48:17 12° 5° (N) 00:52:05 29.354- 29.394
AISAT 02 Apr 00:47:35 00:50:28 16° 267° (W) 00:53:09 437.250
DUCHIFAT 1 02 Apr 00:50:21 00:54:34 73° 284° (WNW) 00:58:46 145.980
QB50P1 02 Apr 00:50:46 00:55:00 70° 284° (WNW) 00:59:13 145.935-145.965
YUBILEINY 02 Apr 00:52:09 01:00:12 40° 74° (ENE) 01:08:18 435.215
50 SAT 02 Apr 00:55:47 00:56:43 10° 270° (W) 00:57:24 437.505
UNISAT 6 02 Apr 00:58:56 01:03:00 30° 288° (WNW) 01:07:02 437.425
QB50P2 02 Apr 01:07:10 01:11:12 42° 286° (WNW) 01:15:13 145.880/145.840
TIGRISAT 02 Apr 01:07:33 01:11:22 25° 289° (WNW) 01:15:09 435.000
BUGSAT 1 02 Apr 01:13:42 01:17:37 51° 285° (WNW) 01:21:32 437.445
ESTCUBE 1 02 Apr 01:31:27 01:33:09 12° 270° (W) 01:34:35 437.505/2401.250
TISAT 1 02 Apr 01:33:45 01:37:52 51° 261° (W) 01:41:59 437.305
POPSAT HIP 1 02 Apr 01:35:44 01:38:59 21° 289° (WNW) 01:42:07 437.405
ANTELSAT 02 Apr 01:41:57 01:43:33 11° 293° (WNW) 01:44:52 437.575/2403.000
PCSat 02 Apr 01:41:58 01:46:04 21° 253° (WSW) 01:49:57 145.827
NANOSAT C BR1 02 Apr 01:45:05 01:47:52 17° 291° (WNW) 01:50:32 145.865
ITUPSAT 1 02 Apr 01:45:14 01:49:15 28° 70° (ENE) 01:53:22 437.325
POLYITAN 1 02 Apr 01:53:25 01:55:39 14° 292° (WNW) 01:57:41 437.675
Oscar 19 02 Apr 01:56:08 01:58:59 15° 91° (E) 02:02:06 437.125/150
SPROUT 02 Apr 01:59:20 02:02:45 22° 265° (W) 02:06:04 437.525
SWISSCUBE 02 Apr 02:30:25 02:35:13 85° 256° (WSW) 02:40:04 437.505
BEESAT 02 Apr 02:32:40 02:37:28 88° 258° (WSW) 02:42:18 436.000
Gurwin Techsat 1B 02 Apr 02:44:44 02:45:13 10° 88° (E) 02:46:09 435.225
YUBILEINY 02 Apr 02:49:01 02:57:01 39° 272° (W) 03:04:48 435.215
RS-15 02 Apr 02:57:03 03:06:24 29° 39° (NE) 03:16:23 29.354- 29.394
O/OREOS (USA 219) 02 Apr 03:02:36 03:04:44 14° 100° (E) 03:07:08 437.305
ITAMSAT 1 02 Apr 03:09:16 03:13:26 25° 95° (E) 03:17:42 435.822/435.867
KKS-1 02 Apr 03:14:53 03:19:05 44° 74° (ENE) 03:23:20 437.445
ITUPSAT 1 02 Apr 03:23:04 03:27:08 26° 265° (W) 03:31:06 437.325
SO-50 02 Apr 03:27:03 03:31:31 33° 53° (NE) 03:35:58 436.795
Oscar 19 02 Apr 03:33:40 03:38:43 53° 286° (WNW) 03:43:45 437.125/150
STARS 02 Apr 03:37:31 03:41:44 50° 74° (ENE) 03:45:59 437.465
PHONESAT 2.4 02 Apr 03:43:23 03:44:43 12° 142° (SE) 03:46:10 2401.200-2431.200
VERMONT LUNAR 02 Apr 04:05:12 04:08:24 45° 152° (SSE) 04:11:38 437.305
AIST 1 02 Apr 04:06:30 04:10:23 32° 92° (E) 04:14:19
Gurwin Techsat 1B 02 Apr 04:20:33 04:25:53 77° 285° (WNW) 04:31:11 435.225
ISS 02 Apr 04:30:24 04:33:00 22° 33° (NNE) 04:35:38 145.825
AO-7 02 Apr 04:38:47 04:45:22 27° 95° (E) 04:52:14 29.400- 29.500
O/OREOS (USA 219) 02 Apr 04:39:22 04:43:48 46° 293° (WNW) 04:48:15 437.305
ITAMSAT 1 02 Apr 04:48:22 04:52:59 33° 290° (WNW) 04:57:31 435.822/435.867
JAS-2 02 Apr 04:53:06 04:59:25 30° 92° (E) 05:05:23 435.910
KKS-1 02 Apr 04:53:44 04:56:01 13° 269° (W) 04:58:04 437.445
M-CUBED/EXP-1 PRIME 02 Apr 04:57:15 04:59:11 13° 61° (ENE) 05:01:23 437.505
SO-50 02 Apr 05:07:49 05:11:57 26° 248° (WSW) 05:15:55 436.795
RS-15 02 Apr 05:08:46 05:20:26 85° 242° (WSW) 05:32:33 29.354- 29.394
STARS 02 Apr 05:16:57 05:18:33 11° 270° (W) 05:19:53 437.465
MOZHAYETS 4 02 Apr 05:18:15 05:22:44 54° 75° (ENE) 05:27:17
PHONESAT 2.4 02 Apr 05:19:09 05:22:40 70° 154° (SSE) 05:26:11 2401.200-2431.200
HORYU 2 02 Apr 05:23:14 05:27:44 71° 285° (WNW) 05:32:14 437.375
VERMONT LUNAR 02 Apr 05:42:56 05:46:07 41° 346° (NNW) 05:49:19 437.305
AIST 1 02 Apr 05:45:10 05:48:10 17° 287° (WNW) 05:51:01
AUBIESAT-1 02 Apr 06:01:28 06:05:28 64° 71° (ENE) 06:09:52 437.475
ISS 02 Apr 06:06:33 06:09:26 29° 228° (SW) 06:12:16 145.825
PRISM 02 Apr 06:23:57 06:26:02 14° 68° (ENE) 06:28:19 437.425
STRAND 1 02 Apr 06:29:29 06:31:50 14° 65° (ENE) 06:34:27 437.568
M-CUBED/EXP-1 PRIME 02 Apr 06:29:40 06:33:35 50° 257° (WSW) 06:37:52 437.505
AO-7 02 Apr 06:30:32 06:38:38 58° 291° (WNW) 06:46:41 29.400- 29.500
JAS-2 02 Apr 06:37:30 06:44:42 46° 290° (WNW) 06:51:09 435.910
PHONESAT 2.4 02 Apr 06:57:51 07:01:09 37° 350° (N) 07:04:28 2401.200-2431.200
MOZHAYETS 4 02 Apr 06:58:26 07:00:23 12° 270° (W) 07:02:02
GONETS M04 02 Apr 07:06:13 07:14:59 64° 80° (E) 07:23:45
CUBESAT XI-V 02 Apr 07:16:38 07:21:21 76° 76° (ENE) 07:26:03 437.345
VERMONT LUNAR 02 Apr 07:21:15 07:24:14 29° 3° (N) 07:27:13 437.305
RS-15 02 Apr 07:24:18 07:31:44 18° 257° (WSW) 07:38:19 29.354- 29.394
CUTE-I 02 Apr 07:39:08 07:44:21 55° 100° (E) 07:49:33 437.470
Cubesat XI-IV 02 Apr 07:40:34 07:45:49 58° 100° (E) 07:51:03 437.490
PRISM 02 Apr 07:57:12 08:01:12 42° 261° (W) 08:05:13 437.425
STRAND 1 02 Apr 08:05:27 08:10:33 64° 259° (WSW) 08:15:41 437.568
DANDE 02 Apr 08:05:56 08:10:17 37° 80° (E) 08:16:03 436.750
AO-7 02 Apr 08:28:31 08:29:57 10° 309° (NW) 08:30:45 29.400- 29.500
CUSAT 1 02 Apr 08:33:07 08:38:07 88° 267° (W) 08:44:49 437.405
PHONESAT 2.4 02 Apr 08:36:43 08:39:57 34° 7° (N) 08:43:13 2401.200-2431.200
BEESAT 3 02 Apr 08:50:47 08:52:24 12° 109° (ESE) 08:54:14 437.485
VERMONT LUNAR 02 Apr 08:58:56 09:02:14 62° 20° (NNE) 09:05:33 437.305
BRITE-PL 02 Apr 09:01:19 09:04:12 18° 94° (E) 09:07:21 437.365/2234.400
GONETS M04 02 Apr 09:04:30 09:11:13 24° 276° (W) 09:17:32
CUTE-I 02 Apr 09:20:43 09:24:02 16° 294° (WNW) 09:27:08 437.470
Cubesat XI-IV 02 Apr 09:22:18 09:25:30 16° 294° (WNW) 09:28:27 437.490
GOMX 1 02 Apr 09:26:09 09:29:35 22° 95° (E) 09:33:17 467.674
SEEDS 02 Apr 09:30:36 09:33:06 15° 92° (E) 09:35:45 437.485
HO-68 02 Apr 09:38:03 09:44:26 34° 97° (E) 09:50:54 435.675
CINEMA 3 02 Apr 09:42:48 09:43:49 11° 90° (E) 09:45:11 145.822/145.860
COMPASS 1 02 Apr 09:46:08 09:49:07 19° 93° (E) 09:52:14 437.405
DANDE 02 Apr 09:49:45 09:53:34 21° 264° (W) 09:58:00 436.750
BEESAT 2 02 Apr 09:54:04 09:58:05 60° 117° (ESE) 10:02:12 435.950
AIST 2 02 Apr 09:54:07 09:57:00 18° 111° (ESE) 10:00:03 435.215
Oscar 11 02 Apr 10:13:04 10:15:34 15° 92° (E) 10:18:15 145.826/435.025
PHONESAT 2.4 02 Apr 10:15:00 10:18:33 89° 40° (NE) 10:22:05 2401.200-2431.200
UNISAT 6 02 Apr 10:20:22 10:22:09 13° 67° (ENE) 10:24:11 437.425
BEESAT 3 02 Apr 10:26:09 10:30:05 46° 303° (WNW) 10:34:04 437.485
TIGRISAT 02 Apr 10:27:56 10:30:19 15° 68° (ENE) 10:32:54 435.000
CANX-2 02 Apr 10:28:42 10:33:02 74° 283° (WNW) 10:37:20 2200.000
DOVE 4 02 Apr 10:31:38 10:36:07 84° 104° (ESE) 10:40:52 437.250
FUNcube-1 02 Apr 10:32:26 10:34:28 13° 91° (E) 10:36:46 145.935
VERMONT LUNAR 02 Apr 10:36:58 10:39:45 24° 213° (SSW) 10:42:30 437.305
BRITE-PL 02 Apr 10:38:58 10:42:50 32° 286° (WNW) 10:46:52 437.365/2234.400
CUTE 1.7 + AOD 2 02 Apr 10:42:03 10:46:18 56° 284° (WNW) 10:50:30 437.475
ZACube-1 02 Apr 10:46:00 10:49:13 20° 94° (E) 10:52:37 437.345
UWE-3 02 Apr 10:46:40 10:50:23 26° 95° (E) 10:54:15 435.000/436.395/437.385
AAUSAT CUBESAT 2 02 Apr 10:49:59 10:54:15 80° 281° (WNW) 10:58:27 437.432
POPSAT HIP 1 02 Apr 10:50:51 10:52:55 14° 69° (ENE) 10:55:11 437.405
ANTELSAT 02 Apr 10:58:51 11:02:44 36° 73° (ENE) 11:06:43 437.575/2403.000
NANOSAT C BR1 02 Apr 10:58:55 11:01:37 17° 70° (ENE) 11:04:28 145.865
CUBEBUG 2 02 Apr 11:00:16 11:04:37 45° 99° (E) 11:09:05 437.445
HUMSAT D 02 Apr 11:03:34 11:05:47 14° 92° (E) 11:08:13 437.325/437.525
GOMX 1 02 Apr 11:03:57 11:07:44 28° 287° (WNW) 11:11:38 467.674
SEEDS 02 Apr 11:05:07 11:09:04 36° 287° (WNW) 11:12:58 437.485
POLYITAN 1 02 Apr 11:06:37 11:09:48 22° 71° (ENE) 11:13:05 437.675
CINEMA 3 02 Apr 11:16:56 11:21:24 59° 284° (WNW) 11:26:03 145.822/145.860
UKube-1 02 Apr 11:20:02 11:23:51 31° 97° (E) 11:27:42 .
COMPASS 1 02 Apr 11:21:10 11:24:52 29° 288° (WNW) 11:28:30 437.405
HO-68 02 Apr 11:25:35 11:32:13 40° 292° (WNW) 11:38:43 435.675
AIST 2 02 Apr 11:31:28 11:35:23 34° 305° (NW) 11:39:19 435.215
BEESAT 2 02 Apr 11:34:49 11:36:42 12° 314° (NW) 11:38:24 435.950
DX 1 02 Apr 11:35:46 11:40:00 51° 100° (E) 11:44:14 434.975-435.025
DELFI C3 02 Apr 11:38:15 11:42:19 61° 284° (WNW) 11:46:20 145.870
DUCHIFAT 1 02 Apr 11:39:28 11:43:32 52° 75° (ENE) 11:47:38 145.980
QB50P1 02 Apr 11:40:10 11:44:17 54° 75° (ENE) 11:48:24 145.935-145.965
Oscar 11 02 Apr 11:47:53 11:51:56 38° 287° (WNW) 11:55:57 145.826/435.025
ESTCUBE 1 02 Apr 11:49:08 11:51:33 15° 91° (E) 11:54:12 437.505/2401.250
PHONESAT 2.4 02 Apr 11:54:13 11:56:35 17° 216° (SW) 11:58:51 2401.200-2431.200
UNISAT 6 02 Apr 11:54:28 11:58:34 47° 261° (W) 12:02:46 437.425
QB50P2 02 Apr 11:56:27 12:00:40 90° 92° (E) 12:04:54 145.880/145.840
BUGSAT 1 02 Apr 12:00:12 12:04:19 67° 76° (ENE) 12:08:24 437.445
TIGRISAT 02 Apr 12:02:49 12:06:47 38° 262° (W) 12:10:48 435.000
FUNcube-1 02 Apr 12:06:48 12:11:05 46° 285° (WNW) 12:15:24 145.935
CUBEBUG 1 02 Apr 12:20:47 12:24:34 30° 97° (E) 12:28:22 437.445
ZACube-1 02 Apr 12:21:41 12:25:38 31° 287° (WNW) 12:29:36 437.345
UWE-3 02 Apr 12:23:09 12:26:52 25° 288° (WNW) 12:30:33 435.000/436.395/437.385
POPSAT HIP 1 02 Apr 12:24:30 12:28:30 41° 261° (W) 12:32:29 437.405
VELOX 1 02 Apr 12:33:12 12:37:37 81° 283° (WNW) 12:42:01 145.980
50 SAT 02 Apr 12:33:18 12:37:20 69° 284° (WNW) 12:41:22 437.505
NANOSAT C BR1 02 Apr 12:33:28 12:37:16 32° 263° (W) 12:41:02 145.865
ANTELSAT 02 Apr 12:37:05 12:39:44 15° 268° (W) 12:42:13 437.575/2403.000
HUMSAT D 02 Apr 12:37:44 12:41:46 40° 286° (WNW) 12:45:47 437.325/437.525
CUBEBUG 2 02 Apr 12:38:21 12:41:00 15° 291° (WNW) 12:43:29 437.445
JUGNU 02 Apr 12:39:02 12:41:50 14° 168° (SSE) 12:44:43 437.505
AISAT 02 Apr 12:39:52 12:44:15 65° 284° (WNW) 12:48:36 437.250
POLYITAN 1 02 Apr 12:42:06 12:45:39 25° 265° (W) 12:49:05 437.675
UKube-1 02 Apr 12:56:42 12:59:49 19° 291° (WNW) 13:02:49 .
Oscar 19 02 Apr 13:10:08 13:13:11 17° 67° (ENE) 13:16:28 437.125/150
DX 1 02 Apr 13:14:03 13:15:51 12° 293° (WNW) 13:17:27 434.975-435.025
O/OREOS (USA 219) 02 Apr 13:14:39 13:17:25 16° 58° (ENE) 13:20:20 437.305
DUCHIFAT 1 02 Apr 13:19:17 13:19:46 10° 270° (W) 13:19:56 145.980
TISAT 1 02 Apr 13:21:58 13:25:39 30° 97° (E) 13:29:23 437.305
ESTCUBE 1 02 Apr 13:24:26 13:28:42 41° 287° (WNW) 13:32:54 437.505/2401.250
SRMSAT 02 Apr 13:47:34 13:49:26 12° 166° (SSE) 13:51:24 437.500
SPROUT 02 Apr 13:48:15 13:52:33 81° 101° (E) 13:56:50 437.525
YUBILEINY 02 Apr 13:48:21 13:56:41 51° 90° (E) 14:05:09 435.215
CUBEBUG 1 02 Apr 13:57:36 14:00:46 20° 290° (WNW) 14:03:48 437.445
Gurwin Techsat 1B 02 Apr 14:01:43 14:04:05 14° 65° (ENE) 14:06:44 435.225
ITAMSAT 1 02 Apr 14:24:03 14:28:24 28° 69° (ENE) 14:32:51 435.822/435.867
JUGNU 02 Apr 14:26:10 14:30:10 18° 178° (S) 14:34:10 437.505
SWISSCUBE 02 Apr 14:34:37 14:38:51 32° 97° (E) 14:43:07 437.505
PCSat 02 Apr 14:35:40 14:41:04 81° 116° (ESE) 14:46:31 145.827
BEESAT 02 Apr 14:36:48 14:40:59 31° 96° (E) 14:45:13 436.000
Oscar 19 02 Apr 14:47:13 14:52:11 51° 261° (W) 14:57:10 437.125/150
O/OREOS (USA 219) 02 Apr 14:52:50 14:57:07 41° 255° (WSW) 15:01:19 437.305
TISAT 1 02 Apr 14:58:19 15:01:17 18° 290° (WNW) 15:04:08 437.305
JAS-2 02 Apr 15:06:34 15:06:53 10° 56° (NE) 15:07:47 435.910
KKS-1 02 Apr 15:11:45 15:12:58 11° 90° (E) 15:14:31 437.445
ITUPSAT 1 02 Apr 15:26:09 15:30:57 77° 283° (WNW) 15:35:43 437.325
STARS 02 Apr 15:32:41 15:34:20 12° 91° (E) 15:36:16 437.465
SRMSAT 02 Apr 15:34:02 15:37:55 18° 175° (S) 15:41:49 437.500
AO-7 02 Apr 15:34:35 15:41:16 29° 62° (ENE) 15:48:09 29.400- 29.500
Gurwin Techsat 1B 02 Apr 15:38:16 15:43:33 68° 258° (WSW) 15:48:52 435.225
YUBILEINY 02 Apr 15:46:15 15:53:53 31° 289° (WNW) 16:01:20 435.215
AIST 1 02 Apr 15:54:08 15:58:27 84° 82° (E) 16:02:42
ITAMSAT 1 02 Apr 16:03:16 16:07:50 30° 264° (W) 16:12:21 435.822/435.867
SWISSCUBE 02 Apr 16:12:49 16:16:33 22° 291° (WNW) 16:20:10 437.505
BEESAT 02 Apr 16:14:54 16:18:43 23° 291° (WNW) 16:22:23 436.000
JUGNU 02 Apr 16:14:55 16:18:30 16° 188° (S) 16:22:03 437.505
HORYU 2 02 Apr 16:18:06 16:22:30 70° 76° (ENE) 16:26:56 437.375
PCSat 02 Apr 16:22:20 16:25:14 14° 314° (NW) 16:27:54 145.827
JAS-2 02 Apr 16:43:38 16:50:28 61° 72° (ENE) 16:58:02 435.910
KKS-1 02 Apr 16:45:39 16:50:01 53° 286° (WNW) 16:54:21 437.445
STARS 02 Apr 17:06:52 17:11:08 48° 286° (WNW) 17:15:23 437.465
MOZHAYETS 4 02 Apr 17:18:02 17:20:55 17° 92° (E) 17:23:59
RS-15 02 Apr 17:21:27 17:27:21 17° 103° (ESE) 17:34:07 29.354- 29.394
SRMSAT 02 Apr 17:22:34 17:26:25 18° 185° (S) 17:30:14 437.500
AO-7 02 Apr 17:25:30 17:33:40 58° 258° (WSW) 17:41:47 29.400- 29.500
SO-50 02 Apr 17:39:14 17:42:36 21° 111° (ESE) 17:46:11 436.795
GONETS M04 02 Apr 18:12:57 18:15:32 12° 80° (E) 18:18:56
M-CUBED/EXP-1 PRIME 02 Apr 18:15:29 18:18:50 19° 96° (E) 18:22:13 437.505
BEESAT 2 02 Apr 18:17:52 18:20:14 15° 48° (NE) 18:22:43 435.950
JAS-2 02 Apr 18:30:40 18:36:07 23° 271° (W) 18:41:40 435.910
BEESAT 3 02 Apr 18:48:19 18:52:05 35° 55° (NE) 18:55:49 437.485
MOZHAYETS 4 02 Apr 18:54:01 18:58:21 39° 287° (WNW) 19:02:37
CUTE-I 02 Apr 18:57:36 19:02:54 66° 75° (ENE) 19:08:14 437.470
Cubesat XI-IV 02 Apr 18:59:11 19:04:31 69° 75° (ENE) 19:09:52 437.490
SRMSAT 02 Apr 19:13:19 19:14:53 11° 195° (SSW) 19:16:21 437.500
CUBESAT XI-V 02 Apr 19:17:32 19:21:13 24° 94° (E) 19:24:59 437.345
SO-50 02 Apr 19:18:39 19:22:56 36° 306° (NW) 19:27:19 436.795
AUBIESAT-1 02 Apr 19:20:30 19:25:20 90° 289° (WNW) 19:29:54 437.475
RS-15 02 Apr 19:27:32 19:38:28 89° 114° (ESE) 19:49:33 29.354- 29.394
PRISM 02 Apr 19:43:14 19:46:58 32° 97° (E) 19:50:43 437.425
M-CUBED/EXP-1 PRIME 02 Apr 19:49:21 19:53:52 39° 292° (WNW) 19:58:09 437.505
BEESAT 2 02 Apr 19:54:43 19:58:40 45° 245° (WSW) 20:02:32 435.950
AIST 2 02 Apr 19:56:02 20:00:12 54° 58° (ENE) 20:04:17 435.215
GONETS M04 02 Apr 20:02:33 20:11:13 81° 95° (E) 20:20:00
HO-68 02 Apr 20:04:54 20:09:26 19° 61° (ENE) 20:14:18 435.675
BRITE-PL 02 Apr 20:10:13 20:12:41 15° 70° (ENE) 20:15:17 437.365/2234.400
STRAND 1 02 Apr 20:19:26 20:24:27 57° 100° (E) 20:29:28 437.568
BEESAT 3 02 Apr 20:27:15 20:29:52 16° 250° (WSW) 20:32:19 437.485
GOMX 1 02 Apr 20:32:34 20:35:10 16° 70° (ENE) 20:37:54 467.674
CUTE-I 02 Apr 20:41:04 20:43:33 13° 270° (W) 20:45:38 437.470
Cubesat XI-IV 02 Apr 20:43:02 20:45:13 12° 271° (W) 20:47:01 437.490
CUBESAT XI-V 02 Apr 20:54:44 20:58:39 27° 289° (WNW) 21:02:28 437.345
ISS 02 Apr 21:06:37 21:09:38 36° 133° (SE) 21:12:41 145.825
DANDE 02 Apr 21:18:12 21:21:04 46° 97° (E) 21:23:37 436.750
CANX-2 02 Apr 21:18:18 21:22:22 49° 75° (ENE) 21:26:31 2200.000
PRISM 02 Apr 21:19:30 21:22:14 17° 291° (WNW) 21:24:47 437.425
CUTE 1.7 + AOD 2 02 Apr 21:31:22 21:35:33 65° 76° (ENE) 21:39:48 437.475
DOVE 4 02 Apr 21:34:33 21:38:45 55° 76° (ENE) 21:42:50 437.250
AIST 2 02 Apr 21:37:13 21:38:22 11° 251° (WSW) 21:39:15 435.215
AAUSAT CUBESAT 2 02 Apr 21:37:37 21:41:32 42° 74° (ENE) 21:45:32 437.432
CUSAT 1 02 Apr 21:42:08 21:44:39 32° 281° (W) 21:47:01 437.405
UWE-3 02 Apr 21:42:39 21:44:30 13° 68° (ENE) 21:46:35 435.000/436.395/437.385
RS-15 02 Apr 21:43:45 21:52:35 26° 323° (NW) 22:01:16 29.354- 29.394
BRITE-PL 02 Apr 21:46:38 21:51:02 41° 261° (W) 21:55:09 437.365/2234.400
HO-68 02 Apr 21:49:21 21:56:31 75° 256° (WSW) 22:03:43 435.675
SEEDS 02 Apr 21:53:23 21:57:35 82° 257° (WSW) 22:01:51 437.485
CUBEBUG 2 02 Apr 21:56:20 21:59:37 24° 71° (ENE) 22:02:59 437.445
STRAND 1 02 Apr 22:00:20 22:03:14 15° 294° (WNW) 22:05:54 437.568
GONETS M04 02 Apr 22:03:28 22:09:17 18° 295° (WNW) 22:14:37
COMPASS 1 02 Apr 22:08:29 22:12:38 66° 259° (W) 22:16:51 437.405
GOMX 1 02 Apr 22:09:04 22:13:09 35° 262° (W) 22:17:02 467.674
UKube-1 02 Apr 22:12:37 22:15:31 18° 69° (ENE) 22:18:35 .
CINEMA 3 02 Apr 22:15:44 22:19:55 85° 78° (ENE) 22:24:05 145.822/145.860
DELFI C3 02 Apr 22:22:32 22:26:27 49° 75° (ENE) 22:30:25 145.870
DX 1 02 Apr 22:28:27 22:32:12 29° 72° (ENE) 22:36:01 434.975-435.025
